YUZGU 7 (RS1S) (53309 NORAD) Tracking and Keplerian Element Data

This shows tracking and keplerian element data for the satellite.

Feedback or suggestion? Click here.




ElementValue
Catalog53309
NameYUZGU 7 (RS1S)
Epoch Orbit1049
Epoch Day270.07539524
Epoch Year2022
RAAN190.6186
Inclination51.6396
Eccentricity0.0001654
Argument of Perigee222.4837
Mean Anonmoly137.6027
Mean Motion15.55518141
Decay Rate0.0007828
L11 53309U 98067TU 22270.07539524 .00078280 00000+0 11197-2 0 9993
L22 53309 51.6396 190.6186 0001654 222.4837 137.6027 15.55518141 10493

Live tracking and technical data element details for YUZGU 7 (RS1S) (NORAD 53309). YUZGU 7 (RS1S) can be tracked NOW for your location showing map with azimuth and elevation plus other details from your city location.

Track the satellite on the map from your city or location and see movement details for azimuth, elevation, latitude, longitude, range, height, and movement on the map or in text.







IsCatalogInMostPopularTable: catalog: 53309, numindb: 3
Update: records affected: 1



GetName: 53309 YUZGU 7 (RS1S)

Hit Count: updated at: Fri, 30 Sep 2022 02:40:55 GMT